GW6157 Weather Reports


time (UTC)temp
C
wind
direction
speed
KPH
gust
KPH
rain 1hr
cm
rain 24hr
cm
rain mn
cm
humidity
%
barometer
mb
20260508121506 9 243 4.8 14.5 0.00 0.13 0.00 65 1004.2
20260508120001 9 281 6.4 12.9 0.00 0.13 0.00 66 1004.2
20260508114504 9 268 1.6 6.4 0.00 0.13 0.00 67 1004.1
20260508113010 7 342 4.8 12.9 0.00 0.13 0.00 71 1004.2
20260508111509 7 219 3.2 11.3 0.00 0.13 0.00 73 1004.2
20260508110014 6 250 6.4 14.5 0.00 0.13 0.00 76 1004.2
20260508104504 6 236 8.0 20.9 0.00 0.13 0.00 76 1004.0
20260508103004 6 201 6.4 14.5 0.00 0.13 0.00 77 1003.9
20260508101510 5 263 1.6 6.4 0.00 0.13 0.00 80 1003.9
20260508100009 4 170 0.0 6.4 0.00 0.15 0.00 86 1003.8
20260508094512 3 360 0.0 3.2 0.00 0.18 0.00 86 1003.6
20260508093012 3 360 0.0 3.2 0.00 0.18 0.00 85 1003.4
20260508091505 3 360 0.0 3.2 0.00 0.20 0.00 83 1003.3
20260508090009 4 360 0.0 3.2 0.00 0.33 0.00 82 1003.2
20260508084509 5 360 0.0 3.2 0.00 0.36 0.00 82 1003.2
20260508083011 5 360 0.0 6.4 0.00 0.36 0.00 80 1003.2
20260508081533 6 360 1.6 3.2 0.00 0.38 0.00 79 1003.2
20260508080004 6 360 0.0 4.8 0.00 0.41 0.00 81 1003.2
20260508074506 6 360 1.6 8.0 0.00 0.43 0.00 76 1003.2
20260508073015 7 360 4.8 9.7 0.00 0.43 0.00 76 1003.1
20260508071534 7 360 1.6 8.0 0.00 0.46 0.00 75 1003.1
20260508070004 7 360 3.2 9.7 0.00 0.48 0.00 74 1003.1
20260508064510 7 360 4.8 12.9 0.00 0.58 0.00 74 1003.1
20260508063023 8 360 3.2 12.9 0.00 0.69 0.00 76 1003.1
20260508061517 8 360 0.0 3.2 0.00 0.76 0.00 81 1003.1
20260508060004 8 360 0.0 3.2 0.00 0.89 0.00 82 1003.2
20260508054508 9 360 0.0 3.2 0.00 0.97 0.00 81 1003.4
20260508053010 9 360 0.0 0.0 0.00 1.09 0.00 81 1003.6
20260508051511 10 360 0.0 0.0 0.00 1.14 0.00 80 1003.9
20260508050017 9 291 0.0 3.2 0.00 1.19 0.00 79 1004.0
20260508044504 10 291 0.0 3.2 0.00 1.22 0.00 76 1004.1
20260508043010 10 291 1.6 3.2 0.00 1.27 0.00 73 1004.0
20260508041511 10 325 1.6 4.8 0.00 1.30 0.00 72 1004.0
20260508040018 10 24 0.0 8.0 0.00 1.32 0.00 72 1003.8
20260508034519 10 352 1.6 6.4 0.00 1.40 0.00 72 1003.9
20260508033006 10 275 1.6 6.4 0.00 1.55 0.00 71 1003.8
20260508024532 10 339 6.4 17.7 0.00 1.60 1.57 72 1003.5
20260508023027 10 302 9.7 25.7 0.00 1.60 1.57 73 1003.4
20260508021509 9 215 9.7 19.3 0.00 1.60 1.57 78 1003.2
20260508020012 8 200 0.0 0.0 0.00 1.60 1.57 85 1003.3
20260508014520 8 360 0.0 1.6 0.00 1.60 1.57 84 1003.2
20260508013022 8 360 1.6 3.2 0.00 1.60 1.57 82 1003.1
20260508011522 10 360 3.2 3.2 0.00 1.60 1.57 80 1003.0
20260508010012 10 360 0.0 0.0 0.00 1.63 1.57 80 1002.8
20260508004515 11 200 0.0 3.2 0.00 1.65 1.57 79 1002.8
20260508003020 11 200 0.0 3.2 0.00 1.65 1.57 79 1002.8
20260508001523 11 200 0.0 3.2 0.00 1.65 1.57 78 1002.8
20260508000025 11 200 1.6 4.8 0.00 1.65 1.57 76 1002.8
20260507234516 11 185 3.2 6.4 0.00 1.65 1.57 75 1002.6
20260507233033 12 152 3.2 6.4 0.00 1.65 1.57 72 1002.5
20260507231534 13 148 1.6 6.4 0.00 1.65 1.57 69 1002.2
20260507230025 13 171 1.6 6.4 0.00 1.65 1.57 67 1002.1
20260507224532 15 175 3.2 8.0 0.00 1.65 1.57 63 1002.1
20260507223028 16 191 3.2 11.3 0.00 1.65 1.57 58 1002.1
20260507221536 17 204 4.8 6.4 0.00 1.65 1.57 49 1001.9
20260507220028 17 261 3.2 9.7 0.00 1.65 1.57 44 1001.8
20260507214506 17 248 4.8 11.3 0.00 1.65 1.57 43 1001.7
20260507213031 17 276 1.6 6.4 0.00 1.65 1.57 45 1001.6
20260507211528 17 332 1.6 4.8 0.00 1.65 1.57 46 1001.6
20260507210022 16 270 3.2 14.5 0.00 1.65 1.57 46 1001.6
20260507204508 16 263 6.4 12.9 0.00 1.65 1.57 47 1001.6
20260507203010 16 248 1.6 12.9 0.00 1.65 1.57 50 1001.4
20260507201518 16 264 8.0 20.9 0.00 1.65 1.57 47 1001.3
20260507200020 17 226 4.8 16.1 0.00 1.65 1.57 48 1001.4
20260507194523 17 334 6.4 17.7 0.00 1.65 1.57 47 1001.4
20260507193010 17 333 4.8 12.9 0.00 1.65 1.57 48 1001.4
20260507191513 17 221 6.4 17.7 0.00 1.65 1.57 49 1001.4
20260507190016 16 329 8.0 17.7 0.00 1.65 1.57 50 1001.4
20260507184522 17 279 6.4 16.1 0.00 1.65 1.57 54 1001.3
20260507183012 16 294 4.8 19.3 0.00 1.65 1.57 58 1001.4
20260507181510 15 274 4.8 12.9 0.00 1.65 1.57 62 1001.5
20260507180022 16 306 3.2 12.9 0.00 1.65 1.57 62 1001.6
20260507174521 15 229 8.0 17.7 0.00 1.65 1.57 67 1001.8
20260507173031 14 221 8.0 14.5 0.00 1.65 1.57 73 1001.8
20260507171509 14 230 3.2 16.1 0.00 1.65 1.57 76 1001.9
20260507170015 13 227 3.2 14.5 0.00 1.65 1.57 80 1002.0
20260507164524 13 217 4.8 14.5 0.00 1.65 1.57 79 1002.5
20260507163022 13 284 9.7 16.1 0.00 1.65 1.57 86 1002.7
20260507161525 12 203 1.6 11.3 0.00 1.65 1.57 89 1002.9
20260507160013 12 252 3.2 8.0 0.00 1.65 1.57 94 1002.9
20260507154515 10 279 3.2 8.0 0.00 1.65 1.57 92 1003.1
20260507153020 10 246 4.8 9.7 0.00 1.65 1.57 93 1003.3
20260507151525 10 263 3.2 8.0 0.00 1.65 1.57 94 1003.8
20260507150028 9 192 1.6 6.4 0.00 1.65 1.57 94 1003.2
20260507144522 9 240 4.8 11.3 0.00 1.65 1.57 94 1004.2
20260507143020 9 257 1.6 8.0 0.00 1.65 1.57 96 1003.6
20260507141523 9 202 1.6 3.2 0.03 1.65 1.57 97 1003.3
20260507140032 9 188 3.2 8.0 0.08 1.65 1.57 97 1003.9
20260507134508 8 212 3.2 9.7 0.08 1.65 1.57 97 1003.6
20260507133002 8 196 4.8 8.0 0.10 1.65 1.57 97 1003.4
20260507131504 8 244 1.6 8.0 0.10 1.63 1.55 97 1003.3
20260507124508 8 209 6.4 9.7 0.05 1.57 1.47 96 1004.1
20260507123000 8 213 4.8 9.7 0.03 1.55 1.47 96 1003.8